AMC-11

Last updated on Sun Oct 06 2024 00:02:38 GMT+0000 (Coordinated Universal Time)

1 28252U 04017A 24279.53871639 -.00000039 00000+0 00000+0 0 9998 2 28252 0.0514 52.4005 0002406 171.2398 233.9213 1.00272886 74660
UTC large
Height (km)
Speed (km/s)
/
Latitude / Longitude
Inclination (degrees)
Orbital Period (minutes)
Azimuth
Elevation
Range (km)
Doppler Factor

Next 0 passes for location: London (51.5072 / 0.1276)

Sorry there are no passes over London.